Location: Zapote
(9.9191°N, 84.0597°W)
Time: 18:45:58
(UTC-06:00)

ISS - Visible Passes

Search period start: 18 May 2021 00:00
Search period end: 28 May 2021 00:00
Orbit: 417 x 422 km, 51.6° (Epoch: 18 May)

Date Brightness Start Highest point End Pass type
(mag) Time Alt. Az. Time Alt. Az. Time Alt. Az.
18 May -0.2 02:54:32 10° NE 02:54:43 10° NE 02:55:26 10° ENE visible
18 May -2.8 04:28:31 10° WNW 04:31:25 27° SW 04:34:20 10° S visible
19 May -1.4 03:46:44 15° SSE 03:46:44 15° SSE 03:47:22 10° SSE visible
